Regional Weather Roundup
Issued by NWS Sterling, VA

Home | Current Version | Previous Version | Graphics & Text | Print | Product List | Glossary On
Versions: 1 2 3 4 5 6 7 8 9 10 11 12 13 14 15 16 17 18 19 20 21 22 23 24 25 26 27 28 29 30 31 32 33 34 35 36 37 38 39 40 41 42 43 44 45 46 47 48 49 50
000
ASUS41 KLWX 100210
RWRLWX

REGIONAL WEATHER ROUNDUP
NATIONAL WEATHER SERVICE BALTIMORE MD/WASHINGTON DC
900 PM EST FRI DEC 09 2016

Note: "FAIR" indicates few or no clouds below 12,000 feet
with no significant weather and/or obstructions to visibility.
 TC=TEMPERATURE CELSIUS

 * =Non NWS site. Station does not report precipitation (e.g. rain,
    snow, etc.), thunder, or fog.

DCZ001-MDZ009-015-VAZ040>042-051-053>054-100300-
WASHINGTON METRO

CITY           SKY/WX    TMP DP  RH WIND       PRES   REMARKS
WASHINGTON NAT CLEAR     32  18  56 NW8       30.42F WCI  25
DULLES         PTCLDY    28  15  58 NW8       30.40F WCI  20
ANDREWS AFB    CLEAR     31  17  56 NW14      30.38F WCI  20
FT BELVOIR     CLEAR     30  15  52 CALM      30.42S
QUANTICO       CLEAR     31  16  54 NW9       30.44F WCI  23
COLLEGE PARK*  CLEAR     32  18  55 W3        30.40F
LEESBURG*      CLEAR     32  21  64 W13       30.41S WCI  22
GAITHERSBURG*  CLEAR     27  14  59 W6        30.42F

$$

MDZ006>007-011-014-100300-
BALTIMORE METRO

CITY           SKY/WX    TMP DP  RH WIND       PRES   REMARKS
BWI AIRPORT    PTCLDY    30  17  58 NW14      30.38F WCI  19
MD SCIENCE CTR   N/A     32  14  47 MISG      30.39F
MARTIN STATE   CLEAR     32  19  59 W12       30.41F WCI  23
ANNAPOLIS      CLEAR     35  19  52 NW9G20    30.39F WCI  28
FORT MEADE*    CLEAR     30  18  59 W7        30.41F

$$

MDZ012-015-019>023-100300-
MARYLAND EASTERN SHORE

CITY           SKY/WX    TMP DP  RH WIND       PRES   REMARKS
OCEAN CITY     CLEAR     31  18  58 NW7       30.37S
SALISBURY      CLEAR     32  18  56 NW10      30.36F WCI  24
BAY BRIDGE AP* CLEAR     32  18  55 MISG      30.39F
CAMBRIDGE*     CLEAR     32  18  55 NW17      30.38F WCI  21
EASTON*        CLEAR     32  18  55 NW13G20   30.42F WCI  22

$$

MDZ017>025-100300-
SOUTHERN MARYLAND

CITY           SKY/WX    TMP DP  RH WIND       PRES   REMARKS
PATUXENT RIVER CLEAR     32  18  56 NW17      30.39F WCI  21
ST INIGOES     CLEAR     33  17  51 W13       30.40F WCI  24
LEONARDTOWN*   CLEAR     32  18  55 W6        30.41F

$$

MDZ003>005-100300-
NORTH CENTRAL MARYLAND

CITY           SKY/WX    TMP DP  RH WIND       PRES   REMARKS
FREDERICK*     NOT AVBL
HAGERSTOWN APT CLEAR     29  14  53 W14       30.37F WCI  18
WESTMINSTER*     N/A     27  16  63 W12       30.35F WCI  16

$$

MDZ501>502-100300-
WESTERN MARYLAND

CITY           SKY/WX    TMP DP  RH WIND       PRES   REMARKS
OAKLAND*       CLOUDY    18  14  86 W7G17     30.26F
CUMBERLAND*    NOT AVBL

$$

VAZ025>031-100300-
SHENANDOAH VALLEY

CITY           SKY/WX    TMP DP  RH WIND       PRES   REMARKS
WINCHESTER*    CLOUDY    28  14  54 W12G21    30.38S WCI  18
FRONT ROYAL*   CLOUDY    30  14  51 W8        30.40S WCI  23
LURAY*         FAIR      28  18  64 W7        30.40F
NEW MARKET*    MOCLDY    24  13  64 SW3       30.40S
STAUNTON*      CLEAR     23  11  61 W5        30.43R
WAYNESBORO*    FAIR      24   9  53 W3        30.41R

$$

WVZ021-048>050-054>055-100300-
EASTERN WEST VIRGINIA PANHANDLE

CITY           SKY/WX    TMP DP  RH WIND       PRES   REMARKS
MARTINSBURG    MOCLDY    30  16  56 W7        30.39F
PETERSBURG*    CLEAR     28  15  57 NW9G16    30.43R WCI  20

$$

VAZ036>039-050-100300-
CENTRAL FOOTHILLS

CITY           SKY/WX    TMP DP  RH WIND       PRES   REMARKS
CHARLOTTESVILL CLEAR     30  11  45 SW3       30.43S
CULPEPER*      CLEAR     27  17  64 CALM      30.43F
ORANGE*          N/A     30  14  51 CALM      30.44S
GORDONSVILLE*  FAIR      30  13  48 CALM      30.43S
WARRENTON*     FAIR      29  12  49 W7        30.41F

$$

VAZ055>057-100300-
NORTH AND CENTRAL PIEDMONT

CITY           SKY/WX    TMP DP  RH WIND       PRES   REMARKS
FREDERICKSBRG* CLEAR     32  17  55 NW7       30.43S
STAFFORD*      CLEAR     28  16  61 CALM      30.46F

$$

NCZ024-NYZ072-PAZ021-071-VAZ022-071-100300-
OTHER REGIONAL OBSERVATIONS

CITY           SKY/WX    TMP DP  RH WIND       PRES   REMARKS
NEW YORK CITY  CLEAR     31  11  43 NW9G23    30.29R WCI  23
PHILADELPHIA   PTCLDY    33  17  51 W15       30.35R WCI  23
PITTSBURGH     PTCLDY    25  19  78 W6        30.39S
ROANOKE        PTCLDY    25  11  55 NW5       30.47S
RICHMOND       CLEAR     31  13  47 N3        30.44R
RALEIGH        CLEAR     30  14  51 VRB3      30.45R

$$

ANZ530>537-100300-
MARINE OBSERVATIONS

STATION/POSITION TIME  TEMP    WIND        PRES
                       AIR SEA DIR/SP/G
                 (UTC) (F)     (DEG/KT/KT) (MB)
THOMAS PT LIGHT  0100   34 46  300/ 19/ 22   N/A
BALT KEY BRIDGE  0142   32     280/ 13/ 16 1029.2F
COVE POINT       0142   33     330/ 21/ 28 1029.5F
LEWISETTA        0142   35 45  330/ 18/ 24 1029.9R
SOLOMONS ISLAND  0142   34 48  320/ 16/ 24   N/A
PINEY POINT      0142          350/ 19/ 22   N/A

$$




USA.gov is the U.S. government's official web portal to all federal, state and local government web resources and services.